This is the latest recevied weather packets stored in our database for station/object G1OCN-WX. If no packets are shown the sender has not sent any weather packets the latest 10 day(s).
| Time | Temp. | Humidity | Pressure | Rain* | Wind** | Luminosity | Snow |
|---|---|---|---|---|---|---|---|
| 1787591051 | 20° C | 63% | 1013.6 hPa | 0 mm | - | - | - |
| 1787590151 | 20° C | 61% | 1013.6 hPa | 0 mm | - | - | - |
| 1787589251 | 20° C | 61% | 1013.6 hPa | 0 mm | - | - | - |
| 1787588351 | 20° C | 60% | 1013.6 hPa | 0 mm | - | - | - |
| 1787587451 | 20° C | 60% | 1013.7 hPa | 0 mm | - | - | - |
| 1787586551 | 20° C | 58% | 1014 hPa | 0 mm | - | - | - |
| 1787585650 | 20° C | 57% | 1014.3 hPa | 0 mm | - | - | - |
| 1787584750 | 20.56° C | 56% | 1014.5 hPa | 0 mm | - | - | - |
| 1787583850 | 20.56° C | 55% | 1014.7 hPa | 0 mm | - | - | - |
| 1787582950 | 20.56° C | 51% | 1014.9 hPa | 0 mm | - | - | - |
| 1787582050 | 20° C | 55% | 1015.1 hPa | 0 mm | - | - | - |
| 1787581150 | 20° C | 58% | 1015.3 hPa | 0 mm | - | - | - |
| 1787580250 | 20° C | 58% | 1015.6 hPa | 0 mm | - | - | - |
| 1787579350 | 20° C | 57% | 1015.7 hPa | 0 mm | - | - | - |
| 1787578450 | 20° C | 59% | 1016 hPa | 0 mm | - | - | - |
| 1787577550 | 20° C | 58% | 1016.1 hPa | 0 mm | - | - | - |
| 1787576650 | 19.44° C | 59% | 1016.2 hPa | 0 mm | - | - | - |
| 1787575750 | 20° C | 58% | 1016.4 hPa | 0 mm | - | - | - |
| 1787574850 | 19.44° C | 59% | 1016.5 hPa | 0 mm | - | - | - |
| 1787573949 | 19.44° C | 59% | 1016.7 hPa | 0 mm | - | - | - |
| 1787573049 | 19.44° C | 59% | 1016.7 hPa | 0 mm | - | - | - |
| 1787572149 | 18.89° C | 61% | 1016.7 hPa | 0 mm | - | - | - |
| 1787571249 | 19.44° C | 60% | 1016.8 hPa | 0 mm | - | - | - |
| 1787570349 | 19.44° C | 61% | 1016.9 hPa | 0 mm | - | - | - |
| 1787569449 | 18.89° C | 61% | 1017 hPa | 0 mm | - | - | - |
* Rain latest hour (hover to see other rain measurements)
** Current wind speed in m/s (hover to see current wind gust speed)